When you browse on this site, cookies collect data to enhance your experience and personalize the content and advertising you see.
Visit our Privacy Policy to learn more. By continuing to use the site, you agree to this use of cookies and data.
  • In Lithuania
  • List of Countries
  • For 7 days
  • Water Temperature
  • Satellite Maps
  • Weather Map
  • Weather Widgets
  • user-avatar
    Login

    Hourly Weather Saban-Antusta

    Today, 20 February, Wednesday

    Time Temperature Precipitation Wind Pressure Humidity
    00:00 -3°C° 0 mm 0 mps 757 mmHg 52%
    01:00 -3°C° 0 mm 0 mps 757 mmHg 51%
    02:00 -2°C° 0 mm 1 mps 757 mmHg 50%
    03:00 -5°C° 0 mm 2 mps 757 mmHg 45%
    04:00 -5°C° 0 mm 2 mps 756 mmHg 45%
    05:00 -5°C° 0 mm 2 mps 756 mmHg 46%
    06:00 -4°C° 0 mm 2 mps 756 mmHg 47%
    07:00 -5°C° 0 mm 3 mps 755 mmHg 45%
    08:00 -4°C° 0 mm 3 mps 755 mmHg 43%
    09:00 -2°C° 0 mm 3 mps 755 mmHg 41%
    10:00 0°C° 0 mm 3 mps 755 mmHg 38%
    11:00 +2°C° 0 mm 3 mps 754 mmHg 34%
    12:00 +3°C° 0 mm 3 mps 754 mmHg 31%
    13:00 +4°C° 0 mm 3 mps 753 mmHg 31%
    14:00 +4°C° 0 mm 3 mps 753 mmHg 31%
    15:00 +5°C° 0 mm 3 mps 753 mmHg 31%
    16:00 +4°C° 0 mm 3 mps 753 mmHg 35%
    17:00 +2°C° 0 mm 3 mps 752 mmHg 39%
    18:00 +1°C° 0 mm 3 mps 752 mmHg 44%
    19:00 0°C° 0 mm 3 mps 752 mmHg 44%
    20:00 0°C° 0 mm 3 mps 752 mmHg 45%
    21:00 -1°C° 0 mm 3 mps 752 mmHg 46%
    22:00 -1°C° 0 mm 3 mps 752 mmHg 45%
    23:00 -1°C° 0 mm 3 mps 751 mmHg 45%

    Tomorrow, 21 February, Thursday

    Time Temperature Precipitation Wind Pressure Humidity
    00:00 -1°C° 0 mm 3 mps 751 mmHg 44%
    01:00 -1°C° 0 mm 3 mps 751 mmHg 44%
    02:00 -1°C° 0 mm 2 mps 751 mmHg 44%
    03:00 -1°C° 0 mm 2 mps 751 mmHg 44%
    04:00 +1°C° 0 mm 2 mps 750 mmHg 44%
    05:00 +1°C° 0 mm 2 mps 750 mmHg 45%
    06:00 +1°C° 0 mm 2 mps 750 mmHg 45%
    07:00 +2°C° 0 mm 2 mps 750 mmHg 43%
    08:00 +3°C° 0 mm 2 mps 750 mmHg 41%
    09:00 +4°C° 0 mm 2 mps 750 mmHg 38%
    10:00 +5°C° 0 mm 3 mps 750 mmHg 35%
    11:00 +7°C° 0 mm 3 mps 749 mmHg 32%
    12:00 +9°C° 0 mm 3 mps 749 mmHg 29%
    13:00 +10°C° 0 mm 4 mps 748 mmHg 28%
    14:00 +10°C° 0 mm 4 mps 748 mmHg 26%
    15:00 +11°C° 0 mm 4 mps 747 mmHg 25%
    16:00 +10°C° 0 mm 4 mps 747 mmHg 31%
    17:00 +8°C° 0 mm 4 mps 747 mmHg 36%
    18:00 +7°C° 0 mm 3 mps 747 mmHg 42%
    19:00 +6°C° 0.5 mm 4 mps 747 mmHg 51%
    20:00 +5°C° 0.5 mm 4 mps 747 mmHg 60%
    21:00 +5°C° 0.5 mm 5 mps 747 mmHg 69%
    22:00 +3°C° 0.3 mm 5 mps 747 mmHg 67%
    23:00 +3°C° 0.3 mm 5 mps 747 mmHg 65%

    Day after tomorrow, 22 February, Friday

    Time Temperature Precipitation Wind Pressure Humidity
    00:00 +2°C° 0.3 mm 6 mps 747 mmHg 62%
    01:00 +1°C° 0 mm 6 mps 748 mmHg 66%
    02:00 -1°C° 0 mm 7 mps 748 mmHg 69%
    03:00 -2°C° 0 mm 7 mps 748 mmHg 72%
    04:00 -3°C° 0 mm 7 mps 749 mmHg 71%
    05:00 -3°C° 0 mm 6 mps 749 mmHg 69%
    06:00 -4°C° 0 mm 6 mps 750 mmHg 67%
    07:00 -4°C° 0 mm 6 mps 750 mmHg 62%
    08:00 -3°C° 0 mm 6 mps 751 mmHg 57%
    09:00 -3°C° 0 mm 7 mps 751 mmHg 52%
    10:00 -2°C° 0 mm 7 mps 751 mmHg 48%
    11:00 -1°C° 0 mm 7 mps 751 mmHg 44%
    12:00 0°C° 0 mm 7 mps 750 mmHg 40%
    13:00 +2°C° 0 mm 7 mps 750 mmHg 39%
    14:00 +2°C° 0 mm 8 mps 750 mmHg 38%
    15:00 +2°C° 0 mm 8 mps 750 mmHg 36%
    16:00 +3°C° 0 mm 6 mps 750 mmHg 41%
    17:00 +3°C° 0 mm 4 mps 750 mmHg 45%
    18:00 +3°C° 0 mm 2 mps 750 mmHg 49%
    19:00 +4°C° 0 mm 1 mps 750 mmHg 50%
    20:00 +4°C° 0 mm 1 mps 750 mmHg 51%
    21:00 +4°C° 0 mm 1 mps 750 mmHg 51%
    22:00 +2°C° 0 mm 2 mps 750 mmHg 53%
    23:00 +1°C° 0 mm 3 mps 750 mmHg 56%

    23 February, Saturday

    Time Temperature Precipitation Wind Pressure Humidity
    00:00 +1°C° 0 mm 3 mps 750 mmHg 58%
    01:00 0°C° 0 mm 4 mps 750 mmHg 62%
    02:00 0°C° 0 mm 4 mps 750 mmHg 66%
    03:00 0°C° 0 mm 4 mps 749 mmHg 71%
    04:00 0°C° 0 mm 4 mps 749 mmHg 74%
    05:00 -1°C° 0 mm 5 mps 749 mmHg 78%
    06:00 -1°C° 0 mm 5 mps 749 mmHg 81%
    07:00 -1°C° 0 mm 6 mps 750 mmHg 78%
    08:00 -1°C° 0 mm 7 mps 750 mmHg 74%
    09:00 0°C° 0 mm 7 mps 750 mmHg 71%
    10:00 +1°C° 0 mm 8 mps 750 mmHg 67%
    11:00 +4°C° 0 mm 8 mps 750 mmHg 63%
    12:00 +5°C° 0 mm 8 mps 750 mmHg 59%
    13:00 +5°C° 0 mm 7 mps 750 mmHg 58%
    14:00 +7°C° 0 mm 6 mps 750 mmHg 58%
    15:00 +7°C° 0 mm 6 mps 750 mmHg 58%
    16:00 +7°C° 0 mm 5 mps 750 mmHg 60%
    17:00 +6°C° 0 mm 4 mps 751 mmHg 62%
    18:00 +6°C° 0 mm 4 mps 751 mmHg 64%
    19:00 +5°C° 0.1 mm 4 mps 751 mmHg 65%
    20:00 +5°C° 0.1 mm 5 mps 752 mmHg 67%
    21:00 +3°C° 0.1 mm 5 mps 752 mmHg 68%
    22:00 +2°C° 0.1 mm 5 mps 753 mmHg 72%
    23:00 +2°C° 0.1 mm 5 mps 753 mmHg 75%

    24 February, Sunday

    Time Temperature Precipitation Wind Pressure Humidity
    00:00 +3°C° 0.1 mm 4 mps 753 mmHg 79%
    01:00 +1°C° 0.1 mm 4 mps 753 mmHg 81%
    02:00 +2°C° 0.1 mm 3 mps 754 mmHg 82%
    03:00 +1°C° 0.1 mm 3 mps 754 mmHg 84%
    04:00 +1°C° 0 mm 3 mps 754 mmHg 85%
    05:00 0°C° 0 mm 3 mps 754 mmHg 86%
    06:00 +1°C° 0 mm 2 mps 754 mmHg 87%
    07:00 +1°C° 0 mm 3 mps 755 mmHg 84%
    08:00 +1°C° 0 mm 3 mps 755 mmHg 80%
    09:00 +2°C° 0 mm 3 mps 755 mmHg 77%
    10:00 +4°C° 0 mm 4 mps 755 mmHg 72%
    11:00 +5°C° 0 mm 4 mps 755 mmHg 67%
    12:00 +7°C° 0 mm 4 mps 755 mmHg 62%
    13:00 +7°C° 0 mm 5 mps 755 mmHg 61%
    14:00 +8°C° 0 mm 5 mps 755 mmHg 59%
    15:00 +8°C° 0 mm 5 mps 754 mmHg 58%
    16:00 +7°C° 0 mm 4 mps 755 mmHg 62%
    17:00 +7°C° 0 mm 4 mps 755 mmHg 66%
    18:00 +7°C° 0 mm 3 mps 755 mmHg 70%
    19:00 +5°C° 0 mm 3 mps 755 mmHg 72%
    20:00 +5°C° 0 mm 4 mps 755 mmHg 75%
    21:00 +4°C° 0 mm 4 mps 755 mmHg 77%
    22:00 +4°C° 0 mm 4 mps 755 mmHg 80%
    23:00 +3°C° 0 mm 4 mps 755 mmHg 83%

    25 February, Monday

    Time Temperature Precipitation Wind Pressure Humidity
    00:00 +1°C° 0 mm 4 mps 755 mmHg 86%
    01:00 +1°C° 0 mm 4 mps 755 mmHg 87%
    02:00 +2°C° 0 mm 3 mps 755 mmHg 89%
    03:00 +2°C° 0 mm 3 mps 755 mmHg 91%
    04:00 +1°C° 0 mm 3 mps 755 mmHg 92%
    05:00 +1°C° 0 mm 3 mps 755 mmHg 93%
    06:00 +1°C° 0 mm 3 mps 755 mmHg 94%
    07:00 +1°C° 0 mm 3 mps 755 mmHg 91%
    08:00 +2°C° 0 mm 3 mps 755 mmHg 88%
    09:00 +3°C° 0 mm 3 mps 755 mmHg 85%
    10:00 +4°C° 0 mm 3 mps 755 mmHg 79%
    11:00 +7°C° 0 mm 3 mps 754 mmHg 73%
    12:00 +7°C° 0 mm 4 mps 754 mmHg 67%
    13:00 +8°C° 0 mm 4 mps 753 mmHg 63%
    14:00 +8°C° 0 mm 4 mps 753 mmHg 60%
    15:00 +10°C° 0 mm 4 mps 752 mmHg 56%
    16:00 +8°C° 0 mm 4 mps 751 mmHg 60%
    17:00 +7°C° 0 mm 4 mps 751 mmHg 65%
    18:00 +7°C° 0 mm 3 mps 750 mmHg 69%
    19:00 +7°C° 0 mm 3 mps 750 mmHg 73%
    20:00 +5°C° 0 mm 3 mps 749 mmHg 76%
    21:00 +4°C° 0 mm 3 mps 749 mmHg 80%
    22:00 +4°C° 0 mm 4 mps 748 mmHg 82%
    23:00 +4°C° 0 mm 4 mps 747 mmHg 85%
    Show more